Regional Weather Roundup
Issued by NWS

Home | Current Version | Previous Version | Text Only | Print | Product List | Glossary Off
Versions: 1 2 3 4 5 6 7 8 9 10 11 12 13 14 15 16 17 18 19 20 21 22 23 24 25 26 27 28 29 30 31 32 33 34 35 36 37 38 39 40 41 42 43 44 45 46 47 48 49 50

000
ASUS43 KBIS 211410
RWRND

NORTH DAKOTA REGIONAL WEATHER ROUNDUP
NATIONAL WEATHER SERVICE BISMARCK ND
800 AM CST SAT JAN 21 2017

NOTE: "FAIR" INDICATES FEW OR NO CLOUDS BELOW 12,000 FEET WITH NO
SIGNIFICANT WEATHER AND/OR OBSTRUCTIONS TO VISIBILITY.


NDZ001>003-009>011-017-211500-
NORTHWEST NORTH DAKOTA

CITY           SKY/WX    TMP DP  RH WIND       PRES   REMARKS
WILLISTON      CLOUDY    26  24  92 CALM      29.31R
MINOT          CLOUDY    28  27  96 S3        29.32R FOG
MINOT AFB      CLOUDY    27  25  93 CALM      29.32R FOG
$$

NDZ018>021-031>035-040>046-211500-
SOUTHWEST NORTH DAKOTA

CITY           SKY/WX    TMP DP  RH WIND       PRES   REMARKS
BISMARCK       LGT SNOW  29  27  92 W7        29.34S FOG
DICKINSON      MOCLDY    27  23  85 NW9       29.28S WCI  18
GARRISON         N/A     21  19  92 W5        29.32R WCI  15
HETTINGER ARPT CLOUDY    26  23  88 W10       29.32R WCI  16
$$

NDZ004>008-012>016-024-026-027-054-211500-
NORTHEAST NORTH DAKOTA

CITY           SKY/WX    TMP DP  RH WIND       PRES   REMARKS
GRAND FORKS    CLOUDY    35  32  88 SE6       29.41R
GRND FRKS AFB  CLOUDY    32  32 100 E7        29.40S
DEVILS LAKE    FOG       33  32  96 SE7       29.36S VSB 1/2
$$

NDZ022-023-025-028>030-036>039-047>053-211500-
SOUTHEAST NORTH DAKOTA

CITY           SKY/WX    TMP DP  RH WIND       PRES   REMARKS
FARGO          CLOUDY    38  34  85 E9        29.39S
JAMESTOWN      FOG       32  32 100 CALM      29.34R VSB 1/4
$$




USA.gov is the U.S. government's official web portal to all federal, state and local government web resources and services.